Regional Weather Roundup
Issued by NWS

Home | Current Version | Previous Version | Text Only | Print | Product List | Glossary On
Versions: 1 2 3 4 5 6 7 8 9 10 11 12 13 14 15 16 17 18 19 20 21 22 23 24 25 26 27 28 29 30 31 32 33 34 35 36 37 38 39 40 41 42 43 44 45 46 47 48 49 50
945
ASCA44 KEWX 182311
RWRMX

LATIN AMERICA AND CARIBBEAN REGIONAL WEATHER ROUNDUP
NATIONAL WEATHER SERVICE AUSTIN/SAN ANTONIO TX
500 PM CST WED JAN 18 2017

NOTE: "FAIR" INDICATED FEW OR NO CLOUDS BELOW 12,000 FEET WITH NO
SIGNIFICANT WEATHER AND/OR OBSTRUCTIONS TO VISIBILITY.

BAJA CALIFORNIA

CITY           SKY/WX    TMP DP  RH WIND       PRES   REMARKS
LORETO         SUNNY     66  52  59 NE17      30.04S
LA PAZ         MOSUNNY   70  43  37 N8        30.07F
MEXICALI       MOSUNNY   68  28  22 SE9       30.01F
S.J. DEL CABO  MOSUNNY   70  52  52 SE10      30.03F
TIJUANA        CLOUDY    57  46  67 W10       30.12R

NORTHWESTERN MEXICO

CITY           SKY/WX    TMP DP  RH WIND       PRES   REMARKS
CULIACAN       PTSUNNY   73  52  46 W6        30.00F
DURANGO        PTSUNNY   64  32  29 SW25      30.14S
GUAYMAS        SUNNY     70  52  52 SW12      30.00S
HERMOSILLO     SUNNY     73  37  27 SW8       30.05F
CD. JUAREZ     MOSUNNY   57  41  54 SW9       29.98S
LOS MOCHIS     SUNNY     72  46  40 NW14      30.04R
OBREGON        SUNNY     73  41  31 W9        29.99F

NORTHEASTERN MEXICO

CITY           SKY/WX    TMP DP  RH WIND       PRES   REMARKS
CHIHUAHUA      MOSUNNY   64  27  24 CALM      30.03F
MATAMOROS      CLOUDY    66  59  77 NE5       29.97R
MONCLOVA       CLOUDY    61  50  67 NE7       30.04R
MONTERREY      CLOUDY    64  54  68 E5        29.99R
NUEVO LAREDO   PTSUNNY   66  48  52 CALM      29.99F
PIEDRAS NEGRAS MOSUNNY   63  46  55 NW12      30.03S
REYNOSA        CLOUDY    64  52  63 N7        29.98S
SALTILLO       PTSUNNY   63  50  63 N9        30.10R
TORREON        PTSUNNY   72  39  30 N6        29.97S
CD. VICTORIA   CLOUDY    73  59  60 NW6       29.94S

WESTERN MEXICO

CITY           SKY/WX    TMP DP  RH WIND       PRES   REMARKS
AGUASCALIENTES PTSUNNY   68  30  24 S9        30.20F
COLIMA         PTSUNNY   77  63  61 SW12      30.05F
DEL BAJIO      CLOUDY    72  41  33 W7        30.24S
GUADALAJARA    CLOUDY    72  37  28 W7        30.15S
MANZANILLO     PTSUNNY   81  72  74 SW7       29.89F
MAZATLAN       CLOUDY    72  55  56 NW7       30.00R
P. VALLARTA    CLOUDY    75  68  78 SW9         N/A
URUAPAN        PTSUNNY   72  48  43 SE9       30.17S
ZACATECAS      CLOUDY    63  36  36 SW23      30.22S

CENTRAL MEXICO

CITY           SKY/WX    TMP DP  RH WIND       PRES   REMARKS
CUERNAVACA     MOSUNNY   81  45  28 CALM      30.06F
MEXICO CITY    MOSUNNY   73  37  27 SE9       30.21F
MORELIA        MOSUNNY   72  41  33 S8        30.19S
POZA RICA      MOSUNNY   86  72  62 CALM      29.93R HX  92
PUEBLA         SUNNY     68  41  37 S17       30.25S
QUERETARO      PTSUNNY   72  43  35 NW12      30.21F
S. LUIS POTOSI CLOUDY    70  30  23 SW14      30.14F
TAMPICO        MOSUNNY   77  70  78 E12       29.89
TOLUCA         MOSUNNY   64  36  34 S10       30.32F

SOUTHERN MEXICO

CITY           SKY/WX    TMP DP  RH WIND       PRES   REMARKS
ACAPULCO       SUNNY     86  70  58 W15       29.87S HX  90
B. DE HUATULCO MOSUNNY   84  68  58 S17       29.93F
OAXACA         SUNNY     81  27  13 S7        30.11F
P. ESCONDIDO   SUNNY     84  73  70 S10         N/A  HX  91
VERACRUZ       MOSUNNY   81  72  74 E8        29.90R
ZIHUATANEJO    MOSUNNY   86  70  58 W7        29.89F HX  90

YUCATAN PENINSULA

CITY           SKY/WX    TMP DP  RH WIND       PRES   REMARKS
CAMPECHE       CLEAR     93  63  36 SE12G23   29.88R HX  94
CANCUN         PTCLDY    79  70  73 SE7       30.04R
CHETUMAL       PTCLDY    81  70  69 SE12      29.99S
CD. DEL CARMEN SUNNY     88  66  48 E12       29.89S HX  90
COZUMEL        PTCLDY    79  70  73 SE9       30.01S
MERIDA         PTCLDY    90  63  40 E9        29.94S HX  90
MINATITLAN     SUNNY     79  73  83 N14       29.88S
TAPACHULA      MOSUNNY   84  72  65 W12       29.86R
TUX. GUTIERREZ MOSUNNY   90  55  31 W10       29.88F
VILLAHERMOSA   MOSUNNY   86  70  58 E10       29.90S HX  90

CENTRAL AMERICA

CITY           SKY/WX    TMP DP  RH WIND       PRES   REMARKS
BELIZE CITY    PTCLDY    79  75  89 E8        29.98R
MANAGUA        PTCLDY    81  66  61 NE16      29.83S

CARIBBEAN

CITY           SKY/WX    TMP DP  RH WIND       PRES   REMARKS
ARUBA          PTCLDY    79  73  83 NE7       29.92S
CURACAO        PTCLDY    79  72  78 E12       29.94S
KINGSTON       PTCLDY    81  70  69 SE16      29.97S
NASSAU         MOCLDY    73  63  68 CALM      30.13R
SAN JUAN       PTCLDY    77  64  65 E8        30.03R
SANTO DOMINGO  PTCLDY    77  70  78 NE9       30.00R
ST. CROIX      PTCLDY    73  63  68 N3        30.02R
ST. KITTS      PTCLDY    75  66  73 NE7       30.00R
ST. THOMAS     CLEAR     75  61  60 NE8       30.01R

$$





USA.gov is the U.S. government's official web portal to all federal, state and local government web resources and services.